Wetbulb
28.85 30.46 30.11 30.85 32.99 35.36 36.17 36.61 39.04 39.83 40.56 40.66 42.15 46.17 46.55 48.65 52.34 54.88 56.75 59.66 60.61 62.00 62.96 63.25 63.66 63.57 63.52
26.24 27.88 28.62 30.66 31.44 31.25 33.08 33.95 34.84 36.35 38.21 39.54 41.94 43.17 45.67 46.36 47.05 50.92 54.37 57.10 58.55 59.53 60.82 61.85 62.69 62.75 62.81
23.93 27.32 28.53 29.48 29.26 30.14 30.86 33.05 35.38 37.27 40.38 41.17 41.74 43.07 46.67 48.23 48.45 50.40 52.82 54.78 56.44 56.48 57.63 58.48 59.39 60.16 61.14
24.50 25.25 26.84 28.60 29.52 28.25 29.36 32.30 34.08 36.05 37.61 38.70 39.62 40.34 41.56 43.79 48.44 50.91 51.10 53.00 54.81 55.42 54.78 54.06 54.33 56.10 57.84
23.37 24.39 24.70 25.48 25.79 27.72 27.82 28.90 30.75 33.36 33.52 34.82 36.15 38.52 41.27 43.48 50.48 50.23 50.62 51.97 53.69 53.87 53.67 53.02 52.02 52.83 55.08
22.95 22.74 23.75 25.17 27.33 27.38 27.11 26.18 26.27 34.68 34.20 34.98 38.20 38.33 42.73 44.78 46.98 50.72 50.35 51.62 51.86 51.81 51.55 51.02 49.92 50.25 51.16
23.70 23.98 24.40 26.21 27.08 26.78 27.01 27.63 28.22 32.43 34.27 32.94 38.32 38.36 42.32 45.21 49.55 50.31 50.38 50.90 50.80 50.37 49.75 49.27 49.24 49.99 50.42
29.47 27.57 27.87 29.01 28.86 29.13 28.87 28.89 30.47 32.77 33.67 28.95 35.63 38.04 41.57 42.57 42.32 48.59 49.91 50.21 49.51 49.45 49.17 49.12 48.84 48.80 49.23
31.53 31.66 32.16 32.04 30.67 29.06 27.36 26.71 25.72 28.20 32.26 32.09 34.36 35.42 38.75 39.51 39.93 42.30 49.26 49.29 49.47 49.54 49.05 48.18 47.70 48.15 49.33
28.63 30.50 31.74 31.60 33.04 31.54 29.13 26.09 26.31 26.29 32.75 32.05 32.41 32.81 34.78 37.82 37.60 37.26 38.88 49.06 49.29 48.67 47.92 47.75 47.92 48.35 47.49
28.08 27.70 28.84 29.86 31.53 32.17 32.78 29.80 28.16 28.15 33.15 33.81 33.51 32.91 33.49 33.27 35.67 35.46 34.43 43.07 47.20 47.07 47.68 47.36 46.82 46.23 43.08
28.65 26.98 26.38 27.43 29.16 30.59 32.01 33.17 34.08 32.29 34.17 34.96 32.37 32.89 33.96 32.59 33.22 34.38 33.73 34.88 43.80 44.20 44.44 45.57 45.28 44.65 43.82
27.44 26.96 26.87 28.12 28.85 29.14 30.62 31.15 31.31 32.26 33.33 34.38 33.71 32.95 32.00 30.81 33.11 32.97 32.90 32.87 35.06 40.46 40.01 39.27 38.75 38.81 37.31
29.05 28.51 27.81 27.60 27.27 28.33 27.55 28.69 28.82 29.57 32.17 33.17 33.78 34.27 32.48 32.34 32.66 32.10 31.99 31.38 32.00 34.09 34.75 33.99 35.05 36.52 36.01
27.90 27.03 26.74 26.98 27.01 28.00 27.62 27.61 26.40 26.74 28.42 31.35 32.90 34.32 34.90 32.18 31.35 32.11 31.64 31.76 31.88 31.83 33.65 31.50 32.54 34.17 34.69
27.96 27.66 26.35 26.30 26.36 27.03 27.62 27.14 26.23 26.98 28.16 30.89 32.23 31.51 31.16 31.28 34.18 31.58 31.88 31.62 31.71 31.82 32.48 30.34 29.85 32.49 34.20
28.37 27.20 26.97 26.84 26.70 26.16 26.24 27.21 27.03 27.93 28.57 29.83 30.44 30.27 27.19 26.82 29.46 34.49 31.25 31.16 30.69 30.76 31.63 30.64 29.92 31.27 33.06
MSLP
1014.61 1014.58 1014.19 1013.60 1013.15 1012.50 1012.29 1011.75 1011.00 1010.65 1010.25 1009.93 1009.39 1008.88 1008.87 1008.63 1008.15 1007.83 1007.69 1007.28 1007.12 1007.22 1007.49 1007.89 1008.07 1008.27 1008.70
1013.98 1013.73 1013.33 1013.02 1012.65 1012.25 1011.89 1011.26 1010.75 1010.21 1009.60 1009.10 1008.63 1008.13 1007.79 1007.63 1007.41 1007.12 1006.80 1006.58 1006.51 1006.69 1006.90 1007.26 1007.76 1008.17 1008.44
1012.74 1013.09 1012.72 1012.46 1011.94 1011.46 1011.24 1010.49 1009.91 1009.45 1008.79 1008.26 1007.88 1007.38 1006.76 1006.38 1006.22 1006.25 1006.33 1006.16 1005.94 1006.24 1006.71 1007.04 1007.48 1008.06 1008.45
1011.86 1011.78 1011.78 1011.49 1011.17 1010.72 1010.17 1009.87 1009.07 1008.82 1008.29 1007.81 1007.49 1006.95 1006.42 1005.92 1005.44 1005.37 1005.64 1005.71 1005.68 1005.90 1006.45 1007.00 1007.66 1008.30 1008.59
1010.68 1010.67 1010.56 1010.64 1010.18 1010.24 1009.82 1009.43 1008.88 1008.50 1007.83 1007.18 1006.96 1006.27 1005.59 1005.11 1004.67 1004.73 1004.98 1005.18 1005.22 1005.69 1006.27 1006.91 1007.41 1008.09 1008.61
1009.39 1009.25 1009.29 1009.53 1009.48 1009.32 1009.16 1008.85 1008.25 1007.51 1007.01 1006.44 1006.38 1005.64 1005.01 1004.55 1004.15 1004.17 1004.41 1004.66 1004.86 1005.37 1006.06 1006.74 1007.22 1007.80 1008.56
1007.13 1007.42 1007.82 1008.27 1008.54 1008.13 1008.08 1007.98 1007.57 1007.22 1006.84 1006.01 1005.80 1005.22 1004.60 1004.23 1003.50 1003.38 1003.76 1004.07 1004.53 1005.16 1005.80 1006.35 1006.99 1007.56 1008.14
1005.26 1005.64 1005.89 1006.51 1006.82 1006.88 1006.98 1007.03 1007.03 1006.76 1006.77 1006.11 1005.53 1004.82 1004.42 1004.03 1003.65 1003.01 1003.03 1003.55 1004.14 1004.89 1005.41 1005.99 1006.72 1007.42 1008.01
1003.86 1004.20 1005.18 1005.67 1006.11 1006.45 1006.22 1006.55 1006.18 1005.96 1006.09 1005.87 1005.03 1004.82 1004.44 1003.92 1003.67 1003.17 1002.55 1003.10 1003.62 1004.24 1004.91 1005.72 1006.56 1007.28 1008.02
1002.36 1002.97 1003.48 1004.14 1004.75 1005.23 1005.51 1005.49 1005.68 1005.52 1004.95 1005.04 1004.91 1005.20 1004.34 1003.77 1003.67 1003.56 1002.66 1002.72 1002.87 1003.57 1004.49 1005.35 1006.27 1007.06 1007.98
1000.91 1001.59 1002.26 1002.85 1003.39 1003.75 1004.29 1004.75 1004.96 1004.83 1004.63 1004.69 1004.65 1004.71 1004.89 1004.48 1004.01 1003.78 1003.08 1002.63 1002.93 1003.75 1004.01 1005.24 1005.95 1006.66 1008.10
999.50 1000.09 1000.86 1001.56 1002.07 1002.76 1003.15 1003.75 1004.19 1004.36 1004.55 1004.73 1004.73 1004.83 1004.75 1004.64 1004.24 1003.83 1003.40 1003.51 1003.08 1003.60 1004.33 1005.59 1006.48 1007.18 1008.38
997.72 998.62 999.39 1000.14 1001.21 1001.76 1002.35 1002.91 1003.34 1003.71 1004.03 1004.35 1004.62 1004.85 1005.11 1005.14 1004.60 1004.21 1004.16 1004.14 1003.94 1004.83 1004.16 1005.88 1006.50 1007.84 1008.87
996.20 997.34 998.72 999.90 1000.68 1001.10 1001.60 1002.21 1002.82 1003.24 1003.71 1003.68 1004.20 1004.57 1004.74 1005.16 1004.83 1004.38 1004.45 1004.72 1005.00 1006.00 1004.27 1006.25 1007.50 1008.41 1009.25
995.82 996.92 998.20 999.24 999.98 1000.56 1001.15 1001.76 1002.17 1002.62 1003.05 1003.37 1003.74 1004.28 1004.44 1004.95 1005.02 1004.56 1004.47 1005.02 1005.73 1006.04 1005.81 1006.66 1008.46 1009.40 1009.89
995.88 996.75 997.73 998.60 999.37 1000.13 1000.74 1001.26 1001.72 1002.06 1002.40 1002.71 1003.31 1004.03 1004.50 1005.01 1004.92 1004.86 1004.91 1005.36 1006.09 1006.68 1006.98 1006.63 1008.90 1010.10 1010.54
995.76 996.58 997.46 998.28 999.01 999.77 1000.29 1000.74 1001.13 1001.45 1001.84 1002.24 1002.63 1003.11 1003.68 1004.34 1005.14 1004.74 1004.99 1005.92 1006.19 1007.47 1007.99 1007.77 1008.84 1010.79 1011.43
Wind_Speed
12 13 17 16 15 13 13 14 11 21 22 24 26 22 22 20 18 16 14 13 14 15 15 18 20 18 16
14 12 15 15 15 17 14 13 14 21 26 25 24 25 24 23 21 19 15 13 13 12 10 10 11 14 17
14 11 12 12 14 15 15 14 12 20 21 21 22 22 20 21 20 18 15 14 14 13 12 10 10 11 14
13 12 11 13 12 11 11 11 11 11 15 16 20 23 25 25 22 15 12 14 14 13 12 11 11 11 12
13 12 12 11 13 10 11 10 12 11 11 10 10 10 10 16 14 11 11 13 13 13 13 13 13 12 10
13 15 16 13 12 11 10 10 10 8 10 8 7 8 8 9 14 12 13 15 16 16 16 18 17 16 14
20 18 16 15 14 15 14 12 11 9 10 10 7 8 7 7 12 15 16 17 18 18 18 19 16 16 16
16 18 18 16 17 15 15 14 11 10 8 11 8 7 5 5 9 9 16 19 20 21 20 18 18 18 16
32 29 22 26 20 10 11 11 10 10 9 10 8 7 6 4 4 11 13 22 24 23 21 20 18 17 10
17 24 26 21 28 18 11 11 8 8 8 7 6 3 5 1 1 3 5 20 23 24 23 22 21 9 9
14 12 13 12 11 14 13 11 9 9 7 5 2 5 4 3 2 2 3 2 8 14 23 25 22 18 11
11 12 12 12 11 11 14 12 10 10 5 6 1 2 2 2 3 2 4 5 6 9 13 19 23 24 19
14 13 13 12 11 11 11 11 11 10 8 10 7 4 1 6 3 1 2 4 5 7 13 11 12 11 15
11 11 10 9 9 9 9 9 9 8 7 12 9 6 2 5 5 1 3 3 3 0 12 10 9 8 10
9 10 10 9 9 8 7 7 8 8 8 8 6 6 3 6 4 1 5 5 5 2 11 14 9 8 10
9 10 10 10 9 7 7 7 7 7 7 7 6 6 3 1 1 5 4 7 6 4 4 17 12 8 10
10 10 9 9 12 8 8 7 7 7 8 7 7 8 7 3 1 4 10 8 10 7 6 12 15 10 10
Wind_Direction
268 269 273 276 278 284 287 282 284 286 292 294 292 294 299 300 305 302 281 236 205 205 209 216 215 216 201
266 267 266 269 274 277 279 281 278 276 282 282 281 284 286 285 287 295 295 237 183 192 204 197 180 172 166
260 259 263 263 268 270 271 267 267 268 269 279 282 283 290 279 276 277 282 236 194 171 173 166 167 168 168
255 255 255 258 258 265 270 276 279 278 275 278 284 284 281 279 277 262 261 228 190 167 169 161 160 171 170
250 248 242 246 253 260 264 275 272 273 271 267 271 269 270 259 258 239 236 218 188 176 169 169 166 170 174
240 242 245 244 250 254 257 262 270 260 257 273 282 279 278 257 244 225 219 216 181 176 174 177 169 165 166
228 228 232 228 235 243 246 249 253 265 283 287 296 289 285 301 250 209 212 202 182 175 175 173 165 159 155
237 233 224 218 217 228 237 246 253 251 253 272 276 295 301 286 327 254 204 193 178 177 169 165 160 159 157
244 244 227 232 227 231 233 237 247 251 243 243 255 288 291 286 303 320 210 185 182 169 159 155 151 152 152
232 238 242 226 220 225 226 230 235 255 247 230 250 256 279 249 316 352 349 199 182 163 159 154 147 133 122
218 216 219 222 222 218 218 213 216 226 244 193 257 217 201 303 297 343 42 267 166 164 150 143 139 134 124
210 201 200 207 209 213 220 218 214 221 259 271 221 9 303 282 299 334 28 359 165 155 137 134 127 124 124
205 200 197 192 197 205 211 215 220 224 226 227 246 256 270 320 285 229 103 19 23 151 120 123 121 123 121
195 189 168 174 188 198 201 199 209 213 204 235 226 232 215 275 257 124 94 128 38 177 109 98 100 107 114
153 147 164 173 186 187 188 188 204 206 201 218 219 199 187 218 306 276 128 102 83 67 132 103 92 109 113
159 163 168 176 178 180 188 190 196 197 196 200 176 161 135 123 175 153 119 125 113 92 131 117 105 97 98
160 165 163 166 171 173 185 186 192 188 205 203 197 191 179 159 360 80 139 132 114 105 113 105 111 105 107